Pompano Beach, FL

8:52 PM EST on February 25, 2017 (GMT -0500)
Pompano Beach

Weather History for KPMP - November, 2013

Change the Weather History Date:

Saturday, November 9, 2013

  Actual Average Record
Temperature  
Mean Temperature 78 °F -  
Max Temperature 81 °F 83 °F 89 °F (1992)
Min Temperature 75 °F 67 °F 51 °F (1951)
Cooling Degree Days 13    
Growing Degree Days 28 (Base 50)    
Moisture  
Dew Point 72 °F    
Average Humidity 84    
Maximum Humidity 96    
Minimum Humidity 72    
Precipitation  
Precipitation 0.11 in - - ()
Sea Level Pressure  
Sea Level Pressure 30.07 in    
Wind  
Wind Speed 18 mph (ENE)    
Max Wind Speed 21 mph    
Max Gust Speed 30 mph    
Visibility 8 miles    
Events Rain    
Averages and records for this station are not official NWS values.
T = Trace of Precipitation, MM = Missing Value Source: NWS Daily Summary

Daily Weather History Graph

Daily Weather History Graph

Search for Another Location

Airport or City:

Trip Planner

Search our weather history database for the weather conditions in past years. The results will help you decide how hot, cold, wet, or windy it might be!

Date:

Astronomy

Nov. 09, 2013 Rise Set
Actual Time 6:34 AM EST 5:33 PM EST
Civil Twilight 6:10 AM EST 5:57 PM EST
Nautical Twilight 5:43 AM EST 6:25 PM EST
Astronomical Twilight 5:15 AM EST 6:52 PM EST
Moon 12:16 PM EST (11/9) 11:53 PM EST (11/9)
Length of Visible Light 11h 46m
Length of Day
10h 58m
Waxing Crescent, 44% of the Moon is Illuminated
Nov 9
Waxing Crescent
Nov 10
First Quarter
Nov 17
Full
Nov 25
Last Quarter
Dec 2
New

Hourly Weather History & Observations

Time (EST) Temp. Heat Index Dew Point Humidity Pressure Visibility Wind Dir Wind Speed Gust Speed Precip Events Conditions
12:09 AM 78.8 °F - 69.8 °F 74% 30.03 in 10.0 mi ENE 19.6 mph 26.5 mph 0.00 in   Overcast
12:53 AM 78.1 °F - 70.0 °F 76% 30.04 in 10.0 mi ENE 19.6 mph 28.8 mph 0.00 in   Overcast
1:05 AM 75.2 °F - 71.6 °F 89% 30.03 in 4.0 mi ENE 18.4 mph 29.9 mph 0.00 in Rain Light Rain
1:14 AM 75.2 °F - 71.6 °F 89% 30.03 in 5.0 mi ENE 17.3 mph 25.3 mph 0.00 in Rain Light Rain
1:42 AM 75.2 °F - 73.4 °F 94% 30.03 in 7.0 mi ENE 19.6 mph 28.8 mph 0.00 in Rain Light Rain
1:53 AM 75.0 °F - 73.0 °F 94% 30.03 in 10.0 mi NE 19.6 mph 24.2 mph 0.00 in   Overcast
2:38 AM 75.2 °F - 73.4 °F 94% 30.02 in 10.0 mi ENE 15.0 mph 24.2 mph N/A   Overcast
2:53 AM 75.0 °F - 73.9 °F 96% 30.03 in 4.0 mi ENE 18.4 mph 27.6 mph 0.01 in Rain Light Rain
3:11 AM 75.2 °F - 73.4 °F 94% 30.03 in 5.0 mi NE 13.8 mph 21.9 mph 0.00 in Rain Light Rain
3:35 AM 75.2 °F - 73.4 °F 94% 30.03 in 8.0 mi NE 15.0 mph - 0.01 in Rain Light Rain
3:53 AM 75.9 °F - 73.0 °F 91% 30.03 in 10.0 mi ENE 19.6 mph 25.3 mph 0.01 in   Overcast
4:53 AM 75.9 °F - 72.0 °F 87% 30.04 in 10.0 mi ENE 16.1 mph 24.2 mph N/A   Overcast
5:53 AM 75.9 °F - 72.0 °F 87% 30.05 in 10.0 mi ENE 18.4 mph 27.6 mph 0.00 in   Overcast
6:53 AM 77.0 °F - 71.1 °F 82% 30.07 in 10.0 mi ENE 18.4 mph 26.5 mph 0.00 in   Overcast
7:28 AM 75.2 °F - 71.6 °F 89% 30.08 in 1.8 mi East 19.6 mph 29.9 mph 0.00 in Rain Light Rain
7:43 AM 75.2 °F - 71.6 °F 89% 30.09 in 3.0 mi ENE 20.7 mph 27.6 mph 0.03 in Rain Light Rain
7:53 AM 75.9 °F - 73.0 °F 91% 30.09 in 10.0 mi ENE 17.3 mph 27.6 mph 0.03 in   Mostly Cloudy
8:00 AM 75.2 °F - 73.4 °F 94% 30.09 in 10.0 mi ENE 20.7 mph 29.9 mph N/A   Overcast
8:12 AM 77.0 °F - 71.6 °F 83% 30.09 in 10.0 mi ENE 18.4 mph 29.9 mph N/A   Mostly Cloudy
8:53 AM 77.0 °F - 71.1 °F 82% 30.11 in 10.0 mi ENE 16.1 mph 29.9 mph N/A   Mostly Cloudy
9:53 AM 78.1 °F - 71.1 °F 79% 30.12 in 10.0 mi ENE 16.1 mph 25.3 mph 0.00 in   Mostly Cloudy
10:23 AM 77.0 °F - 71.6 °F 83% 30.12 in 6.0 mi ENE 17.3 mph 28.8 mph 0.00 in   Haze
10:53 AM 80.1 °F 83.8 °F 72.0 °F 76% 30.11 in 10.0 mi ENE 19.6 mph 28.8 mph 0.00 in   Mostly Cloudy
11:16 AM 78.8 °F - 71.6 °F 78% 30.10 in 10.0 mi ENE 20.7 mph 26.5 mph N/A   Mostly Cloudy
11:53 AM 81.0 °F 84.9 °F 71.1 °F 72% 30.10 in 10.0 mi ENE 18.4 mph 26.5 mph N/A   Mostly Cloudy
12:00 PM 80.6 °F 84.6 °F 71.6 °F 74% 30.09 in 8.0 mi ENE 17.3 mph 27.6 mph N/A   Overcast
12:36 PM 77.0 °F - 71.6 °F 83% 30.08 in 4.0 mi ENE 15.0 mph - 0.00 in Rain Light Rain
12:43 PM 75.2 °F - 71.6 °F 89% 30.08 in 1.8 mi ENE 11.5 mph 21.9 mph 0.01 in Rain Light Rain
12:53 PM 75.0 °F - 72.0 °F 90% 30.08 in 2.0 mi ENE 16.1 mph 23.0 mph 0.02 in Rain Light Rain
1:01 PM 75.2 °F - 71.6 °F 89% 30.07 in 4.0 mi ENE 16.1 mph 26.5 mph 0.00 in Rain Light Rain
1:39 PM 77.0 °F - 73.4 °F 89% 30.07 in 10.0 mi ENE 19.6 mph 26.5 mph 0.00 in   Overcast
1:53 PM 79.0 °F - 75.0 °F 88% 30.07 in 9.0 mi ENE 16.1 mph - 0.00 in   Overcast
2:00 PM 78.8 °F - 73.4 °F 83% 30.07 in 9.0 mi ENE 16.1 mph 26.5 mph N/A   Overcast
2:17 PM 77.0 °F - 71.6 °F 83% 30.07 in 1.8 mi ENE 15.0 mph - 0.01 in Rain Rain
2:33 PM 75.2 °F - 71.6 °F 89% 30.07 in 4.0 mi ENE 17.3 mph 23.0 mph 0.04 in Rain Light Rain
2:53 PM 77.0 °F - 72.0 °F 84% 30.07 in 4.0 mi ENE 18.4 mph 25.3 mph 0.04 in Rain Light Rain
2:59 PM 75.2 °F - 71.6 °F 89% 30.07 in 2.5 mi ENE 18.4 mph 25.3 mph 0.00 in Rain Light Rain
3:16 PM 75.2 °F - 73.4 °F 94% 30.07 in 8.0 mi NNE 15.0 mph - 0.00 in Rain Light Rain
3:25 PM 77.0 °F - 73.4 °F 89% 30.06 in 9.0 mi ENE 13.8 mph - 0.00 in   Overcast
3:53 PM 78.1 °F - 73.0 °F 84% 30.07 in 10.0 mi ENE 17.3 mph 25.3 mph 0.00 in   Overcast
4:53 PM 78.1 °F - 70.0 °F 76% 30.07 in 10.0 mi ENE 18.4 mph 23.0 mph N/A   Overcast
5:53 PM 77.0 °F - 69.1 °F 76% 30.08 in 9.0 mi ENE 18.4 mph 25.3 mph N/A   Overcast
6:53 PM 78.1 °F - 69.1 °F 74% 30.09 in 10.0 mi ENE 18.4 mph 25.3 mph 0.00 in   Overcast
7:27 PM 75.2 °F - 69.8 °F 83% 30.10 in 6.0 mi ENE 15.0 mph 23.0 mph 0.00 in Rain Light Rain
7:53 PM 77.0 °F - 70.0 °F 79% 30.10 in 7.0 mi ENE 15.0 mph 24.2 mph 0.00 in Rain Light Rain
8:53 PM 78.1 °F - 70.0 °F 76% 30.11 in 10.0 mi ENE 19.6 mph 26.5 mph 0.00 in   Overcast
9:53 PM 77.0 °F - 70.0 °F 79% 30.12 in 9.0 mi NE 18.4 mph 27.6 mph N/A   Overcast
10:16 PM 78.8 °F - 69.8 °F 74% 30.11 in 10.0 mi ENE 17.3 mph 26.5 mph N/A   Overcast
10:53 PM 78.1 °F - 70.0 °F 76% 30.10 in 10.0 mi East 19.6 mph 25.3 mph N/A   Overcast
11:10 PM 78.8 °F - 69.8 °F 74% 30.10 in 10.0 mi ENE 19.6 mph 26.5 mph N/A   Overcast
11:53 PM 78.1 °F - 70.0 °F 76% 30.09 in 10.0 mi ENE 16.1 mph - N/A   Overcast